Tracking 30923 objects as of 1-Jul-2025
HD Live streaming from Space Station
objects crossing your sky now

METEOR 1-17 DEB

Track METEOR 1-17 DEB now!
10-day predictions


NORAD ID: 57543
Int'l Code: 1974-025J
Perigee: 829.7 km
Apogee: 843.5 km
Inclination: 81.2 °
Period: 101.5 minutes
Semi major axis: 7207 km
RCS: Unknown
Launch date: April 24, 1974
Source: Commonwealth of Independent States (former USSR) (CIS)
Launch site: PLESETSK MISSILE AND SPACE COMPLEX (PKMTR)

Note: This is SATELLITE DEBRIS
Your satellite tracking list
Your tracking list is empty




NASA's NSSDC Master Catalog

Two Line Element Set (TLE):
1 57543U 74025J   25179.97572943  .00002010  00000-0  96120-3 0  9996
2 57543  81.2009 276.7264 0009603 217.9297 142.1203 14.18790282107435
Source of the keplerian elements: AFSPC